Find Starlink 36858

NORAD ID: 68021 Int'l Des: 2026-040 Owner: SPXS Country: US Constellation: starlink operational
LEOCIRCULARRETROGRADE

リアルタイム位置

3D地球を読み込み中...

Starlink 36858について

説明を読み込み中...

次回通過

Passes for default location (London). Set your location on the main map for personalized predictions.

高度履歴

Loading altitude history...

軌道要素

1 68021U 26040G 26106.91668981 -.00030071 00000-0 -93246-3 0 9992
2 68021 97.2863 56.4542 0001695 91.1685 154.4583 15.33456419 6064
Epoch: Apr 16, 2026 • Age: 9 hours

現在のステータス

高度 477.7 km
速度 7.63 km/s
衛星直下点 79.33°N, 68.68°E
打ち上げ日 Mar 1, 2026
運用期間 0.1 years
タイプ internet

技術仕様

分類 Payload
質量 575.00 kg
乾燥質量 530.00 kg
総質量 575.00 kg
長さ 0.30 m
直径 4.10 m
スパン 29.00 m
形状 Box + pan
製造者 SPXS
バスタイプ Starlink V2MO
フェーズステータス In Orbit
所有者/国 SPXS/US

Most Searched